Regional Weather Roundup
Issued by NWS

Home | Current Version | Previous Version | Text Only | Print | Product List | Glossary Off
Versions: 1 2 3 4 5 6 7 8 9 10 11 12 13 14 15 16 17 18 19 20 21 22 23 24 25 26 27 28 29 30 31 32 33 34 35 36 37 38 39 40 41 42 43 44 45 46 47 48 49 50

000
ASUS43 KIND 281200
RWRIN

WEATHER ROUNDUP FOR INDIANA
NATIONAL WEATHER SERVICE INDIANAPOLIS IN
800 AM EDT SUN MAY 28 2017

NOTE: "FAIR" INDICATES FEW OR NO CLOUDS BELOW 12,000 FEET WITH NO
SIGNIFICANT WEATHER AND/OR OBSTRUCTIONS TO VISIBILITY.

* - STATION DOES NOT REPORT WEATHER SUCH AS PRECIPITATION OR FOG.

+ - STATION NOT QUALITY CONTROLLED BY THE NATIONAL WEATHER SERVICE.
    USE DATA WITH CAUTION...ESPECIALLY DEWPOINT AND RELATIVE
    HUMIDITY OBSERVATIONS.

INZ001>003-010>013-019-020-281300-
NORTHWEST INDIANA

CITY           SKY/WX    TMP DP  RH WIND       PRES   REMARKS
GARY /AIRPORT/ CLOUDY    57  57 100 CALM      29.74S
KNOX *+        MOSUNNY   59  59 100 CALM      29.73S
MICHIGAN CITY+ CLOUDY    59  59 100 CALM      29.74S
MONTICELLO +   CLOUDY    61  60  96 E3        29.72S
6HR MIN TEMP:  59; 6HR MAX TEMP:  61;

RENSSELAER +   CLOUDY    61  59  94 E3        29.73F FOG

$$

LMZ046-743>745-281300-
SOUTHERN LAKE MICHIGAN

STATION/POSITION TIME  TEMP    WIND        PRES    WAVE
                       AIR SEA DIR/SP/G            HT
                 (UTC) (F)     (DEG/KT/KT) (MB)    (FT)
BURNS HARBOR     1140   64     150/  8/ 10 1007.5R
MICHIGAN CITY    1130   61     130/  7/  7   N/A
5NW MICH CITY    1150   58 55  160/  2/  4   N/A     0

$$

INZ004-005-014>016-021>024-281300-
NORTH CENTRAL INDIANA

CITY           SKY/WX    TMP DP  RH WIND       PRES   REMARKS
GOSHEN         CLOUDY    61  54  77 E6        29.75S
6HR MIN TEMP:  56; 6HR MAX TEMP:  63;

PERU/GRISSOM   MOSUNNY   62  62 100 E9        29.72F
6HR MIN TEMP:  59; 6HR MAX TEMP:  63;

SOUTH BEND     CLOUDY    60  56  86 SE8       29.75S
6HR MIN TEMP:  57; 6HR MAX TEMP:  61;

WARSAW +       CLOUDY    59  54  82 E5        29.75S

$$

INZ006>009-017-018-025>027-281300-
NORTHEAST INDIANA

CITY           SKY/WX    TMP DP  RH WIND       PRES   REMARKS
ANGOLA *+      SUNNY     61  48  63 E5        29.76F
AUBURN +       MOSUNNY   59  54  82 E5        29.77S
FORT WAYNE     PTSUNNY   62  55  77 E6        29.76R
6HR MIN TEMP:  58; 6HR MAX TEMP:  62;

KENDALLVILLE + CLOUDY    60  54  79 E3        29.76F

$$

INZ028-029-035-036-043>045-051>053-281300-
WEST CENTRAL INDIANA

CITY           SKY/WX    TMP DP  RH WIND       PRES   REMARKS
CRAWFORDSVL +  CLOUDY   -20 -20 100 S6        29.73S WCI -36
6HR MIN TEMP: -23; 6HR MAX TEMP: -20; 6HR PCP:  0.01;

GREENCASTLE +  CLOUDY    63  61  94 S3        29.75R
LAFAYETTE      CLOUDY    62  62 100 E3        29.71F FOG
6HR MIN TEMP:  58; 6HR MAX TEMP:  62;

TERRE HAUTE    MOSUNNY   65  60  84 S6        29.74R
6HR MIN TEMP:  63; 6HR MAX TEMP:  68;


$$

INZ030>032-037>040-046>048-054>057-064-065-281300-
CENTRAL INDIANA

CITY           SKY/WX    TMP DP  RH WIND       PRES   REMARKS
COLUMBUS       SUNNY     63  61  94 S6        29.76R
FRANKFORT +    PTSUNNY   66  64  96 SE6       29.74S FOG
6HR MIN TEMP:  64; 6HR MAX TEMP:  66;

GREENWOOD *+   PTSUNNY   64  62  93 S7        29.75S
6HR MIN TEMP:  64; 6HR MAX TEMP:  66;

INDIANAPOLIS   CLOUDY    65  63  93 S7        29.73S
6HR MIN TEMP:  63; 6HR MAX TEMP:  67;

-EAGLE CREEK   PTSUNNY   65  62  90 S8        29.73R
6HR MIN TEMP:  63; 6HR MAX TEMP:  65;

KOKOMO +       CLOUDY    62  60  93 E7        29.74S
6HR MIN TEMP:  60; 6HR MAX TEMP:  63;

SHELBYVILLE    MOSUNNY   66  61  84 S10       29.74R
6HR MIN TEMP:  64; 6HR MAX TEMP:  68;


$$

INZ033-034-041-042-049-050-058-059-281300-
EAST CENTRAL INDIANA

CITY           SKY/WX    TMP DP  RH WIND       PRES   REMARKS
MUNCIE         MOSUNNY   66  63  90 S5        29.74S
6HR MIN TEMP:  61; 6HR MAX TEMP:  66;

RICHMOND +     CLOUDY    61  61 100 S10       29.78R

$$

INZ060-061-067>069-081>083-085>088-281300-
SOUTHWEST INDIANA

CITY           SKY/WX    TMP DP  RH WIND       PRES   REMARKS
EVANSVILLE     CLOUDY    67  60  78 SW15      29.81R
6HR MIN TEMP:  66; 6HR MAX TEMP:  68;

HUNTINGBURG *+ CLOUDY    65  62  90 SW10      29.80R
6HR MIN TEMP:  64; 6HR MAX TEMP:  66;

WASHINGTON +   PTSUNNY   65  59  79 SW12G17   29.77R
6HR MIN TEMP:  64; 6HR MAX TEMP:  67;


$$

INZ062-063-066-070>080-084-089>092-281300-
SOUTH CENTRAL AND SOUTHEAST INDIANA

CITY           SKY/WX    TMP DP  RH WIND       PRES   REMARKS
BLOOMINGTON    MOSUNNY   64  60  87 S7        29.76R
6HR MIN TEMP:  62; 6HR MAX TEMP:  67;

MADISON *+     CLOUDY    63  61  94 S12       29.80S
SEYMOUR +      PTSUNNY   66  63  88 S6        29.76R

$$





USA.gov is the U.S. government's official web portal to all federal, state and local government web resources and services.